Weather in Kular

Russia / Sakha (Yakutia) Republic     70°38′17″N   134°20′51″E
temp.,
°C
wind,
m/s
gust,
m/s
humid.,
%
clouds,
%
prec.,
mm/h
press.,
hPa
HPBL,
m
17 october, sun
sun1701:00−22sse1110088 0.0 10229
04:00−22s1110093 0.0 10229
07:00−23sse1110098 0.0 10239
10:00−22s2110098 0.1 10239
13:00−20s2210069 0.0 102213
16:00−21s2210032 0.0 10229
19:00−22s2210028 0.0 10229
22:00−23s2210017 0.0 102211
18 october, mon
mon1801:00−23s2210025 0.0 102010
04:00−22s229885 0.0 101912
07:00−22sse229763 0.0 101811
10:00−22sse229754 0.0 101711
13:00−19sse229469 0.0 101516
16:00−22se229659 0.0 10139
19:00−23sse229732 0.0 10139
22:00−24sse229751 0.0 10129
19 october, tue
tue1901:00−22sse2295100 0.0 101110
04:00−20sse229297 0.0 101011
07:00−19se2292100 0.0 100911
10:00−19se229275 0.0 100913
13:00−21se22935 0.0 100910
16:00−22se22935 0.0 10099
19:00−23se22945 0.0 100910
22:00−23sse32935 0.0 100812
20 october, wed
wed2001:00−21sse339062 0.0 100715
04:00−21se329152 0.0 100716
07:00−19se229090 0.0 100619
10:00−17se2289100 0.0 100525
13:00−14sse2285100 0.0 100450
16:00−13se219299 0.0 100424
19:00−13se229699 0.2 100429
22:00−13se1196100 0.3 100424
21 october, thu
thu2101:00−13se2197100 0.2 100419
04:00−13ese2196100 0.3 100527
07:00−14ese2297100 0.2 100517
10:00−13ese229695 0.4 100545
13:00−11se229599 0.2 100578
16:00−11ese2296100 0.4 100532
19:00−12se2296100 0.3 100536
22:00−12se229790 0.6 100521